Location: Bacharowice
(49.9333°N, 19.5833°E)
Time: 22:35:21
(UTC+00:00)

Cosmos 2227 Rocket - Pass Details

Date: 11 May 2021
Orbit: 840 x 844 km, 71.0° (Epoch: 21 June)

Event Time Altitude Azimuth Distance (km) Brightness Sun altitude
Rises 22:57:05 0° 333° (NNW) 3,406 6.3 -21.8°
Reaches altitude 10° 22:59:58 10° 347° (NNW) 2,468 5.6 -21.8°
Maximum altitude 23:04:38 26° 42° (NE) 1,621 4.2 -21.7°
Drops below altitude 10° 23:09:17 10° 98° (E) 2,460 4.6 -21.6°
Sets 23:12:08 0° 111° (ESE) 3,392 5.2 -21.5°
